Weather Roundup
Issued by NWS Corpus Christi, TX

Home | Current Version | Previous Version | Text Only | Print | Product List | Glossary On
Versions: 1 2 3 4 5 6 7 8 9 10 11 12 13 14 15 16 17 18 19 20 21 22 23 24 25 26 27 28 29 30 31 32 33 34 35 36 37 38 39 40 41 42 43 44 45 46 47 48 49 50
000
ASUS44 KCRP 220410
HRRCRP

SOUTH TEXAS REGIONAL WEATHER ROUNDUP
NATIONAL WEATHER SERVICE CORPUS CHRISTI TX
1100 PM CDT TUE OCT 21 2014


TXZ229>244-220500-
...CORPUS CHRISTI AREA OBSERVATIONS...

CITY           SKY/WX    TMP DP  RH WIND       PRES   REMARKS
CORPUS CHRISTI MOCLDY    74  67  78 E7        30.00R
NAS CORPUS CHR MOCLDY    75  67  76 E10       29.99S
ROCKPORT       CLEAR     75  64  68 E13       30.01S
KINGSVILLE NAS MOCLDY    72  69  90 NE7       29.99S
ALICE          PTCLDY    71  66  84 NE5       30.01R
FALFURRIAS     CLOUDY    73  69  85 NE7       29.99R
$$

...VICTORIA AREA OBSERVATIONS...

CITY           SKY/WX    TMP DP  RH WIND       PRES   REMARKS
VICTORIA       CLEAR     63  55  75 E7        30.04R
BEEVILLE       FAIR      71  63  74 E9        30.02R
PLEASANTON     MOCLDY    71  50  48 E5        30.04R
SAN ANTONIO    MOCLDY    70  47  43 NE5       30.05R
$$

...LAREDO AREA OBSERVATIONS...

CITY           SKY/WX    TMP DP  RH WIND       PRES   REMARKS
LAREDO         CLOUDY    74  70  87 E10       30.04R
COTULLA        CLOUDY    78  62  57 SE12      30.01R
DEL RIO        CLOUDY    70  68  93 CALM      30.01R
MCALLEN        MOCLDY    75  72  90 N7        29.98R
HEBBRONVILLE   CLOUDY    73  67  83 NE7       30.02S
$$

...OTHER TEXAS OBSERVATIONS...

CITY           SKY/WX    TMP DP  RH WIND       PRES   REMARKS
BROWNSVILLE    CLOUDY    78  71  79 NE7       29.96R
HOUSTON        PTCLDY    66  61  84 CALM      30.05R
COL. STATION   CLEAR     68  59  73 E6        30.05S
AUSTIN         MOCLDY    59  54  83 CALM      30.05S
WACO           PTCLDY    65  58  78 CALM      30.07R
FORT WORTH     CLEAR     69  58  67 SE5       30.06S
WICHITA FALLS  CLEAR     63  51  65 SE8       30.06R
LUBBOCK        MOCLDY    65  52  62 S8        30.09R
EL PASO        PTCLDY    64  53  67 E7        30.04R
$$

...MARINE OBSERVATIONS...

STATION/POSITION TIME  SKY/WX   TEMP    WIND        PRES    VSBY  WAVE   SWELL
                                AIR SEA DIR/SP/G                  HT/PER HT/PER
                 (UTC)          (F)     (DEG/KT/KT) (MB)    (MI)  (FT/S) (FT/S)
PORT ARANSAS     0400            77 78   60/ 17/ 19 1016.1F
BUOY 90 E PORT A 0400            78 81   70/ 16/ 19 1015.9R         6/ 7
BUOY 45 SE BAFFI 0400            79 81   70/ 16/ 19 1014.5R         5/ 7   3/ 7
BUOY 200 E PT IS 0400            80 82   70/ 19/ 23 1012.8R         6/ 7
BUOY 15 E GALVES 0400            77 78   60/ 14/ 16 1016.3R         3/ 6
$$



USA.gov is the U.S. government's official web portal to all federal, state and local government web resources and services.